Regional Weather Roundup
Issued by NWS Little Rock, AR

Home | Current Version | Previous Version | Text Only | Print | Product List | Glossary Off
Versions: 1 2 3 4 5 6 7 8 9 10 11 12 13 14 15 16 17 18 19 20 21 22 23 24 25 26 27 28 29 30 31

000
ASUS44 KLZK 161405
RWRLZK

WEATHER ROUNDUP FOR ARKANSAS
NATIONAL WEATHER SERVICE LITTLE ROCK AR
800 AM CST TUE JAN 16 2018

NOTE: "FAIR" INDICATES FEW OR NO CLOUDS BELOW 12,000 FEET WITH NO
SIGNIFICANT WEATHER AND/OR OBSTRUCTIONS TO VISIBILITY.

ARZ001-003-010-029-161500-
NORTHWEST ARKANSAS

CITY           SKY/WX    TMP DP  RH WIND       PRES   REMARKS
FAYETTEVILLE   PTCLDY     1  -6  72 N10       30.73R WCI -15
FORT SMITH     CLOUDY    13   1  59 N13       30.79R WCI  -2
HARRISON       CLOUDY     1  -4  79 NW8       30.68R WCI -13
BENTONVILLE    CLOUDY    -2  -8  76 NW6       30.74R WCI -14
ROGERS         CLOUDY    -1  -7  75 NW9       30.71R WCI -16
SILOAM SPGS    PTCLDY     1  -5  75 N10       30.75R WCI -15
HIGHFILL       MOCLDY     0  -6  76 N6        30.72R WCI -12
SPRINGDALE       N/A    N/A N/A N/A N10       30.71S
$$

ARZ004-005-016-161500-
NORTH CENTRAL ARKANSAS

CITY           SKY/WX    TMP DP  RH WIND       PRES   REMARKS
BATESVILLE     CLEAR      6  -4  63 NW10G18   30.74R WCI  -9
FLIPPIN        CLOUDY     2  -5  72 NW6       30.76R WCI  -9
MTN HOME       CLOUDY     0  -5  79 N5        30.71R WCI -10
$$

ARZ040-041-161500-
WEST CENTRAL ARKANSAS

CITY           SKY/WX    TMP DP  RH WIND       PRES   REMARKS
MENA           CLOUDY    12   3  67 N6        30.71R WCI   3
MOUNT IDA      CLEAR     11   0  61 N10G17    30.70R WCI  -3
$$

ARZ009-017-025-026-028-161500-
NORTHEAST ARKANSAS

CITY           SKY/WX    TMP DP  RH WIND       PRES   REMARKS
JONESBORO      FAIR       9  -1  64 NW14      30.73R WCI  -7
NEWPORT        FAIR       8  -2  63 NW18      30.76R WCI -11
WALNUT RIDGE   FAIR       7  -2  66 NW17      30.74R WCI -12
BLYTHEVILLE    FAIR       6   1  80 N13       30.71R WCI -10
$$

ARZ022-023-033-042-044-161500-
CENTRAL ARKANSAS

CITY           SKY/WX    TMP DP  RH WIND       PRES   REMARKS
LITTLE ROCK    MOCLDY    10   0  63 N13       30.76R WCI  -5
N LITTLE ROCK    N/A      9   0  65 N9        30.78R WCI  -4
JACKSONVILLE   CLEAR     10  -3  55 NW8       30.74R WCI  -2
SEARCY         FAIR       9  -4  55 N8          N/A  WCI  -3
HOT SPRINGS    CLEAR     15   3  59 N7        30.73R WCI   5
RUSSELLVILLE   CLEAR     11  -2  56 NW14G20   30.75R WCI  -5
CLINTON        FAIR       7  -4  61 VRB5G15   30.75R WCI  -2
$$

ARZ036-161500-
EAST ARKANSAS

CITY           SKY/WX    TMP DP  RH WIND       PRES   REMARKS
WEST MEMPHIS   MOCLDY    15   6  67 N10       30.69R WCI   2
$$

ARZ050-053-066-070-073-161500-
SOUTHWEST ARKANSAS

CITY           SKY/WX    TMP DP  RH WIND       PRES   REMARKS
ARKADELPHIA    FAIR      18  10  71 NW9       30.75R WCI   7
CAMDEN         DRIZZLE   21  14  73 N6        30.72S WCI  14
TEXARKANA      CLOUDY    19   7  59 N12       30.73R WCI   7
EL DORADO      CLOUDY    20  18  92 N7        30.71R WCI  11
DE QUEEN       CLEAR     15   3  59 NW10      30.76R WCI   2
$$

ARZ056-057-069-161500-
SOUTHEAST ARKANSAS

CITY           SKY/WX    TMP DP  RH WIND       PRES   REMARKS
PINE BLUFF     MOCLDY    16   7  67 N12       30.73R WCI   3
STUTTGART      FAIR      14   5  67 N20       30.73R WCI  -3
MONTICELLO     CLOUDY    20  13  74 VRB7      30.70R WCI  11

$$






USA.gov is the U.S. government's official web portal to all federal, state and local government web resources and services.